Location: Hall+in+Tirol
(47.2830°N, 11.5170°E)
Time: 05:46:46
(UTC+02:00)

Amateur Radio Satellites - All Passes

Search period start: 02 July 2016 05:16
Search period end: 03 July 2016 05:16
Location: Hall+in+Tirol, 47.2830°N, 11.5170°E

Satellite Date Start Highest point End Downlink Frequencies (MHz)
Time Altitude Azimuth
CUBESAT XI-V 02 Jul 05:30:32 05:35:12 71° 74° (ENE) 05:39:54 437.345
AIST 1 02 Jul 05:31:56 05:34:49 18° 274° (W) 05:37:42
MOZHAYETS 4 02 Jul 05:32:15 05:35:21 18° 270° (W) 05:38:29
STARS 02 Jul 05:37:10 05:40:37 23° 266° (W) 05:44:05 437.465
AO-7 02 Jul 05:37:17 05:45:43 86° 291° (WNW) 05:54:06 29.400- 29.500
NOAA 18 02 Jul 06:14:55 06:18:00 15° 88° (E) 06:21:04 137.9125
Cosmos 2499 02 Jul 06:15:04 06:23:56 82° 80° (E) 06:32:11 435.465 / 435.565
AIST 2 02 Jul 06:20:35 06:24:09 27° 320° (NW) 06:27:46 435.215
CUTE-I 02 Jul 06:23:39 06:27:01 17° 89° (E) 06:30:22 437.470
HORYU 2 02 Jul 06:26:45 06:31:17 85° 285° (WNW) 06:35:47 437.375
PHONESAT 2.4 02 Jul 06:29:21 06:31:13 15° 163° (SSE) 06:33:06 2401.200-2431.200
BRITE-PL 02 Jul 06:38:31 06:41:59 25° 94° (E) 06:45:29 437.365/2234.400
NOAA 15 02 Jul 06:38:58 06:43:31 29° 95° (E) 06:48:02 137.62
DANDE 02 Jul 06:39:30 06:44:24 18° 81° (E) 06:48:59 436.750
STRAND 1 02 Jul 06:42:24 06:47:00 34° 65° (ENE) 06:51:38 437.568
AO-85 02 Jul 06:42:44 06:46:39 29° 245° (WSW) 06:50:16 145.980
GOMX 1 02 Jul 06:53:32 06:56:26 18° 92° (E) 06:59:24 467.674
GONETS M04 02 Jul 06:54:54 07:03:06 48° 272° (W) 07:11:19
CUBESAT XI-V 02 Jul 07:10:29 07:13:06 15° 272° (W) 07:15:44 437.345
LilacSat-2 02 Jul 07:18:16 07:22:03 46° 99° (E) 07:25:48 437.200
CUSAT 1 02 Jul 07:22:10 07:29:23 57° 97° (E) 07:35:13 437.405
Cubesat XI-IV 02 Jul 07:29:07 07:34:27 58° 101° (E) 07:39:44 437.490
AO-7 02 Jul 07:31:02 07:37:26 25° 313° (NW) 07:43:50 29.400- 29.500
DOVE 4 02 Jul 07:34:35 07:38:05 23° 94° (E) 07:41:42 437.250
NOAA 18 02 Jul 07:53:47 07:59:23 87° 287° (WNW) 08:04:57 137.9125
CANX-2 02 Jul 07:55:48 07:56:40 10° 86° (E) 07:57:31 2200.000
PCSat 02 Jul 07:59:25 08:01:19 12° 19° (NNE) 08:03:13 145.827
CUTE-I 02 Jul 08:02:17 08:07:41 77° 287° (WNW) 08:13:03 437.470
CINEMA 3 02 Jul 08:03:34 08:06:17 15° 89° (E) 08:09:04 145.822/145.860
PHONESAT 2.4 02 Jul 08:04:45 08:07:15 23° 180° (S) 08:09:45 2401.200-2431.200
HORYU 2 02 Jul 08:05:22 08:07:08 12° 304° (NW) 08:08:54 437.375
ISS 02 Jul 08:06:26 08:09:19 29° 142° (SE) 08:12:12 145.825
Cosmos 2499 02 Jul 08:09:25 08:15:59 25° 282° (WNW) 08:22:18 435.465 / 435.565
CUTE 1.7 + AOD 2 02 Jul 08:13:42 08:16:07 15° 89° (E) 08:18:31 437.475
BRITE-PL 02 Jul 08:16:53 08:20:33 31° 292° (WNW) 08:24:16 437.365/2234.400
DANDE 02 Jul 08:18:04 08:26:24 75° 98° (E) 08:33:38 436.750
NOAA 15 02 Jul 08:18:30 08:23:27 43° 293° (WNW) 08:28:21 137.62
STRAND 1 02 Jul 08:21:25 08:26:09 36° 263° (W) 08:30:55 437.568
PRISM 02 Jul 08:29:48 08:33:50 53° 71° (ENE) 08:37:53 437.425
GOMX 1 02 Jul 08:30:44 08:34:49 49° 288° (WNW) 08:39:03 467.674
AAUSAT CUBESAT 2 02 Jul 08:40:05 08:41:14 11° 87° (E) 08:42:25 437.432
HO-68 02 Jul 08:47:38 08:54:22 40° 97° (E) 09:01:01 435.675
LilacSat-2 02 Jul 08:53:27 08:56:02 17° 296° (WNW) 08:58:36 437.200
CUSAT 1 02 Jul 09:05:24 09:11:38 31° 290° (WNW) 09:16:49 437.405
Cubesat XI-IV 02 Jul 09:09:54 09:14:09 24° 300° (WNW) 09:18:23 437.490
CUBEBUG 2 02 Jul 09:11:16 09:15:00 23° 93° (E) 09:18:47 437.445
DOVE 4 02 Jul 09:11:50 09:15:56 41° 290° (WNW) 09:20:14 437.250
COMPASS 1 02 Jul 09:15:53 09:19:42 32° 96° (E) 09:23:26 437.405
ZACube-1 02 Jul 09:21:49 09:24:16 14° 88° (E) 09:26:42 437.345
BEESAT 3 02 Jul 09:21:59 09:25:04 21° 37° (NE) 09:28:08 437.485
Oscar 11 02 Jul 09:24:16 09:26:41 14° 89° (E) 09:29:06 145.826/435.025
CANX-2 02 Jul 09:28:49 09:33:08 84° 284° (WNW) 09:37:24 2200.000
AUBIESAT-1 02 Jul 09:29:30 09:30:46 11° 95° (E) 09:32:05 437.475
ANTELSAT 02 Jul 09:32:09 09:35:23 20° 62° (ENE) 09:38:39 437.575/2403.000
NOAA 18 02 Jul 09:35:53 09:39:17 17° 306° (NW) 09:42:41 137.9125
FUNcube-1 02 Jul 09:36:39 09:39:51 19° 91° (E) 09:43:04 145.935
CINEMA 3 02 Jul 09:39:16 09:43:50 69° 286° (WNW) 09:48:36 145.822/145.860
PHONESAT 2.4 02 Jul 09:41:20 09:43:18 16° 196° (SSW) 09:45:16 2401.200-2431.200
PCSat 02 Jul 09:41:37 09:46:30 32° 43° (NE) 09:51:21 145.827
ISS 02 Jul 09:42:22 09:45:37 61° 341° (NNW) 09:48:52 145.825
CUTE-I 02 Jul 09:44:11 09:46:52 14° 307° (NW) 09:49:32 437.470
SEEDS 02 Jul 09:44:59 09:49:16 88° 286° (WNW) 09:53:29 437.485
CUTE 1.7 + AOD 2 02 Jul 09:48:08 09:52:23 61° 287° (WNW) 09:56:34 437.475
UWE-3 02 Jul 09:50:11 09:54:31 38° 97° (E) 09:58:51 435.000/436.395/437.385
DELFI C3 02 Jul 09:54:21 09:56:07 13° 89° (E) 09:57:51 145.870
DANDE 02 Jul 10:02:52 10:09:44 29° 295° (WNW) 10:15:49 436.750
PRISM 02 Jul 10:06:54 10:09:29 16° 269° (W) 10:12:02 437.425
BEESAT 2 02 Jul 10:07:19 10:10:51 29° 41° (NE) 10:14:23 435.950
M-CUBED/EXP-1 PRIME 02 Jul 10:10:11 10:13:52 35° 104° (ESE) 10:17:47 437.505
AAUSAT CUBESAT 2 02 Jul 10:13:06 10:17:18 77° 284° (WNW) 10:21:25 437.432
QB50P2 02 Jul 10:16:07 10:17:25 11° 57° (ENE) 10:18:44 145.880/145.840
POLYITAN 1 02 Jul 10:18:38 10:20:02 11° 57° (ENE) 10:21:27 437.675
Cosmos 2491 02 Jul 10:20:52 10:27:47 25° 60° (ENE) 10:34:39 435.465 / 435.565
TIGRISAT 02 Jul 10:21:18 10:25:32 55° 72° (ENE) 10:29:55 435.000
UNISAT 6 02 Jul 10:27:41 10:32:00 68° 74° (ENE) 10:36:28 437.425
HO-68 02 Jul 10:35:21 10:42:11 48° 297° (WNW) 10:48:59 435.675
CUBEBUG 2 02 Jul 10:47:23 10:51:48 44° 290° (WNW) 10:56:17 437.445
COMPASS 1 02 Jul 10:51:38 10:55:09 26° 294° (WNW) 10:58:38 437.405
BUGSAT 1 02 Jul 10:53:27 10:53:36 10° 57° (ENE) 10:53:44 437.445
ZACube-1 02 Jul 10:56:28 11:01:02 72° 287° (WNW) 11:05:37 437.345
Oscar 11 02 Jul 10:58:56 11:03:16 64° 286° (WNW) 11:07:33 145.826/435.025
BEESAT 3 02 Jul 10:59:10 11:03:06 61° 236° (WSW) 11:06:59 437.485
AUBIESAT-1 02 Jul 11:01:39 11:05:38 81° 290° (WNW) 11:09:54 437.475
CANX-2 02 Jul 11:07:07 11:08:16 11° 303° (WNW) 11:09:25 2200.000
ANTELSAT 02 Jul 11:07:32 11:11:45 49° 261° (W) 11:16:06 437.575/2403.000
RS-15 02 Jul 11:10:17 11:20:41 43° 109° (ESE) 11:31:36 29.354- 29.394
FUNcube-1 02 Jul 11:11:57 11:16:24 54° 288° (WNW) 11:20:52 145.935
ISS 02 Jul 11:19:20 11:22:25 36° 1° (N) 11:25:29 145.825
CINEMA 3 02 Jul 11:19:49 11:20:12 10° 304° (NW) 11:20:36 145.822/145.860
AIST 2 02 Jul 11:22:13 11:24:54 16° 31° (NNE) 11:27:35 435.215
SEEDS 02 Jul 11:22:59 11:24:16 11° 302° (WNW) 11:25:33 437.485
PCSat 02 Jul 11:24:52 11:30:09 52° 243° (WSW) 11:35:22 145.827
NANOSAT C BR1 02 Jul 11:26:15 11:30:16 47° 71° (ENE) 11:34:19 145.865
UWE-3 02 Jul 11:26:55 11:30:49 27° 294° (WNW) 11:34:44 435.000/436.395/437.385
DELFI C3 02 Jul 11:27:26 11:31:24 62° 286° (WNW) 11:35:18 145.870
O/OREOS (USA 219) 02 Jul 11:31:19 11:35:32 37° 57° (ENE) 11:39:43 437.305
QB50P1 02 Jul 11:31:28 11:35:34 56° 72° (ENE) 11:39:43 145.935-145.965
POPSAT HIP 1 02 Jul 11:35:03 11:39:10 60° 73° (ENE) 11:43:21 437.405
HUMSAT D 02 Jul 11:35:29 11:39:49 75° 102° (ESE) 11:44:07 437.325/437.525
DUCHIFAT 1 02 Jul 11:44:44 11:48:52 70° 74° (ENE) 11:53:04 145.980
M-CUBED/EXP-1 PRIME 02 Jul 11:45:02 11:48:18 26° 299° (WNW) 11:51:46 437.505
BEESAT 2 02 Jul 11:45:03 11:48:46 38° 241° (WSW) 11:52:28 435.950
QB50P2 02 Jul 11:48:20 11:52:32 89° 75° (ENE) 11:56:47 145.880/145.840
JAS-2 02 Jul 11:50:54 11:57:27 37° 64° (ENE) 12:03:23 435.910
POLYITAN 1 02 Jul 11:50:58 11:55:10 89° 230° (SW) 11:59:25 437.675
TIGRISAT 02 Jul 11:59:47 12:02:37 17° 270° (W) 12:05:30 435.000
YUBILEINY 02 Jul 12:05:16 12:12:52 35° 83° (E) 12:20:31 435.215
UNISAT 6 02 Jul 12:06:58 12:09:15 14° 272° (W) 12:11:33 437.425
Cosmos 2491 02 Jul 12:17:02 12:25:48 85° 263° (W) 12:34:31 435.465 / 435.565
AISAT 02 Jul 12:17:45 12:21:24 25° 94° (E) 12:25:03 437.250
DX 1 02 Jul 12:23:53 12:27:14 21° 93° (E) 12:30:34 434.975-435.025
BUGSAT 1 02 Jul 12:24:16 12:28:17 86° 75° (ENE) 12:32:20 437.445
HO-68 02 Jul 12:25:32 12:28:13 12° 319° (NW) 12:30:55 435.675
Oscar 19 02 Jul 12:28:12 12:32:04 22° 60° (ENE) 12:35:55 437.125/150
ESTCUBE 1 02 Jul 12:29:33 12:33:57 50° 100° (E) 12:38:18 437.505/2401.250
ZACube-1 02 Jul 12:35:37 12:36:31 10° 304° (NW) 12:37:24 437.345
AUBIESAT-1 02 Jul 12:38:32 12:39:34 11° 307° (NW) 12:40:38 437.475
50 SAT 02 Jul 12:39:21 12:42:53 41° 99° (E) 12:46:22 437.505
Cosmos 2504 02 Jul 12:41:10 12:46:35 19° 74° (ENE) 12:52:08 435.465 / 435.565
CUBEBUG 1 02 Jul 12:53:37 12:57:55 61° 101° (ESE) 13:02:11 437.445
ISS 02 Jul 12:55:56 12:59:12 65° 21° (NNE) 13:02:28 145.825
AIST 2 02 Jul 12:59:53 13:04:04 79° 51° (NE) 13:08:14 435.215
AO-7 02 Jul 13:00:54 13:04:40 14° 34° (NE) 13:08:26 29.400- 29.500
NANOSAT C BR1 02 Jul 13:03:23 13:06:16 18° 268° (W) 13:09:11 145.865
QB50P1 02 Jul 13:09:13 13:11:43 15° 270° (W) 13:14:14 145.935-145.965
O/OREOS (USA 219) 02 Jul 13:11:01 13:14:47 27° 256° (WSW) 13:18:32 437.305
VELOX 1 02 Jul 13:12:16 13:16:41 84° 102° (ESE) 13:21:05 145.980
HUMSAT D 02 Jul 13:12:37 13:14:53 14° 301° (WNW) 13:17:08 437.325/437.525
POPSAT HIP 1 02 Jul 13:13:05 13:15:22 14° 270° (W) 13:17:41 437.405
Gurwin Techsat 1B 02 Jul 13:16:32 13:20:56 27° 62° (ENE) 13:25:19 435.225
RS-15 02 Jul 13:21:00 13:32:33 70° 315° (NW) 13:44:46 29.354- 29.394
DUCHIFAT 1 02 Jul 13:23:18 13:25:04 12° 272° (W) 13:26:50 145.980
SPROUT 02 Jul 13:25:27 13:29:41 55° 100° (E) 13:33:54 437.525
UKube-1 02 Jul 13:31:44 13:36:04 84° 107° (ESE) 13:40:22 .
JAS-2 02 Jul 13:35:03 13:42:19 53° 260° (W) 13:48:52 435.910
AISAT 02 Jul 13:53:56 13:57:58 36° 292° (WNW) 14:02:01 437.250
DX 1 02 Jul 13:59:30 14:03:36 42° 291° (WNW) 14:07:42 434.975-435.025
YUBILEINY 02 Jul 14:00:39 14:09:13 59° 285° (WNW) 14:17:56 435.215
Oscar 19 02 Jul 14:05:54 14:10:59 60° 259° (WSW) 14:16:05 437.125/150
ESTCUBE 1 02 Jul 14:07:06 14:10:26 21° 298° (WNW) 14:13:45 437.505/2401.250
50 SAT 02 Jul 14:13:49 14:16:16 17° 297° (WNW) 14:18:41 437.505
Cosmos 2491 02 Jul 14:15:38 14:21:17 20° 285° (WNW) 14:26:56 435.465 / 435.565
Cosmos 2504 02 Jul 14:30:11 14:38:29 82° 96° (E) 14:47:20 435.465 / 435.565
TISAT 1 02 Jul 14:30:49 14:35:03 71° 103° (ESE) 14:39:15 437.305
CUBEBUG 1 02 Jul 14:31:02 14:33:46 17° 299° (WNW) 14:36:29 437.445
ISS 02 Jul 14:32:40 14:35:27 26° 219° (SW) 14:38:14 145.825
ITAMSAT 1 02 Jul 14:37:19 14:42:19 48° 68° (ENE) 14:47:21 435.822/435.867
AIST 2 02 Jul 14:40:02 14:41:58 13° 250° (WSW) 14:43:54 435.215
AO-7 02 Jul 14:47:36 14:55:21 45° 58° (ENE) 15:03:09 29.400- 29.500
VELOX 1 02 Jul 14:50:30 14:52:31 13° 302° (WNW) 14:54:33 145.980
Gurwin Techsat 1B 02 Jul 14:55:28 15:00:36 50° 261° (W) 15:05:48 435.225
SPROUT 02 Jul 15:02:22 15:05:15 18° 298° (WNW) 15:08:07 437.525
UKube-1 02 Jul 15:09:35 15:11:29 13° 302° (WNW) 15:13:24 .
SWISSCUBE 02 Jul 15:17:53 15:22:31 46° 99° (E) 15:27:07 437.505
SO-50 02 Jul 15:27:05 15:31:45 47° 120° (ESE) 15:36:26 436.795
RS-15 02 Jul 15:36:56 15:47:40 37° 345° (NNW) 15:58:48 29.354- 29.394
BEESAT 02 Jul 15:42:35 15:47:24 72° 103° (ESE) 15:52:11 436.000
ITUPSAT 1 02 Jul 15:46:24 15:51:15 77° 103° (ESE) 15:56:02 437.325
MOZHAYETS 4 02 Jul 15:47:32 15:48:50 11° 86° (E) 15:50:08
HORYU 2 02 Jul 15:53:03 15:55:56 17° 60° (ENE) 15:58:49 437.375
YUBILEINY 02 Jul 16:03:46 16:08:20 15° 311° (NW) 16:12:57 435.215
TISAT 1 02 Jul 16:07:57 16:10:10 14° 300° (WNW) 16:12:24 437.305
ITAMSAT 1 02 Jul 16:17:43 16:22:01 26° 267° (W) 16:26:21 435.822/435.867
Cosmos 2504 02 Jul 16:26:07 16:33:00 27° 300° (WNW) 16:40:12 435.465 / 435.565
AIST 1 02 Jul 16:26:37 16:30:00 23° 88° (E) 16:33:22
NOAA 15 02 Jul 16:26:40 16:28:19 11° 52° (NE) 16:30:00 137.62
AO-7 02 Jul 16:40:00 16:48:02 51° 259° (W) 16:56:10 29.400- 29.500
SWISSCUBE 02 Jul 16:56:12 17:00:03 24° 298° (WNW) 17:03:53 437.505
KKS-1 02 Jul 17:01:24 17:05:49 59° 102° (ESE) 17:10:13 437.445
Cosmos 2499 02 Jul 17:07:17 17:11:00 13° 70° (ENE) 17:14:46 435.465 / 435.565
SO-50 02 Jul 17:07:58 17:12:25 33° 320° (NW) 17:16:50 436.795
Cubesat XI-IV 02 Jul 17:16:11 17:20:08 21° 59° (ENE) 17:24:07 437.490
BEESAT 02 Jul 17:21:35 17:24:39 17° 302° (WNW) 17:27:42 436.000
MOZHAYETS 4 02 Jul 17:22:00 17:26:41 90° 55° (NE) 17:31:19
STARS 02 Jul 17:22:06 17:26:25 50° 100° (E) 17:30:42 437.465
CUBESAT XI-V 02 Jul 17:25:27 17:27:53 14° 88° (E) 17:30:18 437.345
ITUPSAT 1 02 Jul 17:25:33 17:28:30 16° 302° (WNW) 17:31:26 437.325
HORYU 2 02 Jul 17:27:38 17:32:02 63° 258° (WSW) 17:36:29 437.375
HO-68 02 Jul 17:38:40 17:40:15 11° 39° (NE) 17:41:50 435.675
NOAA 18 02 Jul 17:43:30 17:48:32 39° 65° (ENE) 17:53:36 137.9125
CUTE-I 02 Jul 17:47:59 17:52:51 37° 65° (ENE) 17:57:46 437.470
BRITE-PL 02 Jul 17:51:56 17:56:31 45° 71° (ENE) 18:00:48 437.365/2234.400
RS-15 02 Jul 17:53:11 18:04:22 39° 20° (NNE) 18:15:41 29.354- 29.394
CUSAT 1 02 Jul 17:55:41 17:58:45 27° 68° (ENE) 18:01:18 437.405
NOAA 15 02 Jul 18:01:54 18:07:07 64° 71° (ENE) 18:12:21 137.62
GONETS M04 02 Jul 18:03:08 18:11:11 45° 87° (E) 18:19:16
LilacSat-2 02 Jul 18:03:15 18:06:44 35° 70° (ENE) 18:10:15 437.200
AIST 1 02 Jul 18:03:27 18:07:25 35° 286° (WNW) 18:11:23
GOMX 1 02 Jul 18:04:43 18:08:27 27° 67° (ENE) 18:12:03 467.674
KKS-1 02 Jul 18:38:58 18:41:58 18° 299° (WNW) 18:44:57 437.445
DOVE 4 02 Jul 18:43:28 18:47:08 30° 68° (ENE) 18:50:47 437.250
CANX-2 02 Jul 18:51:16 18:53:14 13° 59° (ENE) 18:55:11 2200.000
SO-50 02 Jul 18:52:18 18:54:21 12° 343° (NNW) 18:56:23 436.795
Cosmos 2499 02 Jul 18:53:51 19:02:10 62° 92° (E) 19:10:53 435.465 / 435.565
Cubesat XI-IV 02 Jul 18:54:24 18:59:43 67° 257° (WSW) 19:05:06 437.490
DANDE 02 Jul 18:57:10 19:01:55 58° 74° (ENE) 19:05:27 436.750
STARS 02 Jul 18:59:13 19:02:27 20° 298° (WNW) 19:05:40 437.465
MOZHAYETS 4 02 Jul 19:00:59 19:03:09 13° 303° (WNW) 19:05:19
CUBESAT XI-V 02 Jul 19:01:11 19:05:48 72° 286° (WNW) 19:10:22 437.345
SEEDS 02 Jul 19:06:52 19:08:29 12° 58° (ENE) 19:10:06 437.485
CINEMA 3 02 Jul 19:08:46 19:11:35 18° 62° (ENE) 19:14:28 145.822/145.860
CUTE 1.7 + AOD 2 02 Jul 19:09:28 19:12:14 17° 61° (ENE) 19:15:00 437.475
HO-68 02 Jul 19:19:31 19:26:07 42° 61° (ENE) 19:32:46 435.675
NOAA 18 02 Jul 19:24:14 19:29:13 35° 263° (W) 19:34:15 137.9125
CUTE-I 02 Jul 19:28:02 19:32:55 35° 264° (W) 19:37:50 437.470
BRITE-PL 02 Jul 19:31:28 19:35:12 22° 267° (W) 19:38:45 437.365/2234.400
AAUSAT CUBESAT 2 02 Jul 19:33:19 19:35:11 13° 59° (ENE) 19:37:04 437.432
LilacSat-2 02 Jul 19:38:21 19:41:10 20° 268° (W) 19:44:01 437.200
CUSAT 1 02 Jul 19:38:45 19:40:23 13° 276° (W) 19:41:53 437.405
GOMX 1 02 Jul 19:42:31 19:46:31 32° 264° (W) 19:50:21 467.674
NOAA 15 02 Jul 19:43:32 19:47:20 20° 269° (W) 19:51:09 137.62
GONETS M04 02 Jul 19:59:43 20:08:00 47° 289° (WNW) 20:16:20
RS-15 02 Jul 20:06:46 20:19:09 77° 49° (NE) 20:31:29 29.354- 29.394
COMPASS 1 02 Jul 20:09:27 20:13:15 33° 68° (ENE) 20:17:04 437.405
CUBEBUG 2 02 Jul 20:12:41 20:16:12 26° 65° (ENE) 20:19:48 437.445
AUBIESAT-1 02 Jul 20:18:03 20:20:29 19° 59° (ENE) 20:22:59 437.475
ZACube-1 02 Jul 20:20:54 20:23:34 16° 60° (ENE) 20:26:16 437.345
DOVE 4 02 Jul 20:21:18 20:24:54 27° 265° (W) 20:28:26 437.250
Oscar 11 02 Jul 20:22:00 20:24:56 18° 62° (ENE) 20:27:52 145.826/435.025
CANX-2 02 Jul 20:24:10 20:28:28 82° 259° (WSW) 20:32:48 2200.000
STRAND 1 02 Jul 20:28:05 20:33:12 61° 101° (ESE) 20:38:17 437.568
FUNcube-1 02 Jul 20:35:23 20:38:34 21° 63° (ENE) 20:41:49 145.935
SO-50 02 Jul 20:36:28 20:37:01 10° 8° (N) 20:37:34 436.795
SEEDS 02 Jul 20:39:16 20:43:32 87° 261° (W) 20:47:50 437.485
CUBESAT XI-V 02 Jul 20:41:29 20:42:20 10° 305° (NW) 20:43:11 437.345
DANDE 02 Jul 20:42:10 20:43:39 12° 283° (WNW) 20:45:01 436.750
CUTE 1.7 + AOD 2 02 Jul 20:43:25 20:47:38 58° 259° (W) 20:51:54 437.475
DELFI C3 02 Jul 20:43:42 20:45:34 13° 60° (ENE) 20:47:26 145.870
CINEMA 3 02 Jul 20:44:22 20:48:24 49° 261° (W) 20:52:31 145.822/145.860
Cosmos 2499 02 Jul 20:48:07 20:55:50 36° 294° (WNW) 21:03:54 435.465 / 435.565
UWE-3 02 Jul 20:50:12 20:54:13 42° 69° (ENE) 20:58:21 435.000/436.395/437.385
AO-85 02 Jul 20:58:07 21:03:16 46° 119° (ESE) 21:08:13 145.980
M-CUBED/EXP-1 PRIME 02 Jul 21:00:17 21:03:32 73° 69° (ENE) 21:06:54 437.505
AAUSAT CUBESAT 2 02 Jul 21:05:53 21:10:05 79° 259° (W) 21:14:18 437.432
HO-68 02 Jul 21:06:58 21:13:47 46° 261° (W) 21:20:41 435.675
PRISM 02 Jul 21:43:20 21:47:21 55° 101° (E) 21:51:21 437.425
COMPASS 1 02 Jul 21:45:20 21:48:51 26° 266° (W) 21:52:25 437.405
CUBEBUG 2 02 Jul 21:48:51 21:52:42 34° 264° (W) 21:56:41 437.445
AUBIESAT-1 02 Jul 21:51:53 21:54:50 30° 257° (WSW) 21:57:54 437.475
ZACube-1 02 Jul 21:55:09 21:59:22 62° 260° (W) 22:03:43 437.345
Oscar 11 02 Jul 21:56:22 22:00:39 56° 260° (W) 22:04:58 145.826/435.025
GONETS M04 02 Jul 22:05:16 22:07:39 11° 316° (NW) 22:10:03
STRAND 1 02 Jul 22:08:05 22:11:58 22° 300° (WNW) 22:15:49 437.568
FUNcube-1 02 Jul 22:10:25 22:14:30 46° 262° (W) 22:18:44 145.935
YUBILEINY 02 Jul 22:10:42 22:17:10 22° 57° (ENE) 22:23:37 435.215
SO-50 02 Jul 22:15:39 22:19:19 22° 32° (NNE) 22:22:55 436.795
DELFI C3 02 Jul 22:15:51 22:19:53 72° 258° (WSW) 22:23:56 145.870
UNISAT 6 02 Jul 22:17:55 22:19:53 12° 87° (E) 22:21:51 437.425
RS-15 02 Jul 22:19:58 22:30:46 38° 254° (WSW) 22:41:29 29.354- 29.394
UWE-3 02 Jul 22:27:41 22:30:54 21° 268° (W) 22:34:12 435.000/436.395/437.385
HUMSAT D 02 Jul 22:29:23 22:33:35 76° 74° (ENE) 22:37:52 437.325/437.525
VELOX 1 02 Jul 22:38:28 22:40:51 14° 59° (ENE) 22:43:13 145.980
AO-85 02 Jul 22:38:54 22:43:53 38° 318° (NW) 22:48:39 145.980
UKube-1 02 Jul 22:55:40 22:57:49 14° 58° (ENE) 22:59:59 .
ANTELSAT 02 Jul 22:55:55 22:59:59 28° 95° (E) 23:04:03 437.575/2403.000
AISAT 02 Jul 23:17:57 23:21:54 33° 67° (ENE) 23:25:51 437.250
PRISM 02 Jul 23:19:41 23:22:16 16° 299° (WNW) 23:24:51 437.425
50 SAT 02 Jul 23:20:07 23:23:26 31° 69° (ENE) 23:26:46 437.505
DX 1 02 Jul 23:22:14 23:25:57 28° 65° (ENE) 23:29:40 434.975-435.025
Cosmos 2491 02 Jul 23:27:56 23:34:26 24° 78° (ENE) 23:40:55 435.465 / 435.565
ESTCUBE 1 02 Jul 23:31:46 23:36:17 67° 73° (ENE) 23:40:48 437.505/2401.250
QB50P2 02 Jul 23:32:03 23:33:41 12° 88° (E) 23:35:19 145.880/145.840
POLYITAN 1 02 Jul 23:34:35 23:36:21 12° 88° (E) 23:38:06 437.675
TIGRISAT 02 Jul 23:45:47 23:50:29 80° 103° (ESE) 23:55:11 435.000
CUBEBUG 1 02 Jul 23:52:18 23:56:37 74° 74° (ENE) 00:00:58 437.445
UNISAT 6 02 Jul 23:52:30 23:57:11 84° 285° (WNW) 00:01:55 437.425
SO-50 02 Jul 23:55:42 00:00:25 84° 236° (WSW) 00:04:58 436.795
YUBILEINY 03 Jul 00:06:35 00:15:30 83° 81° (E) 00:24:22 435.215
HUMSAT D 03 Jul 00:08:16 00:09:46 12° 273° (W) 00:11:16 437.325/437.525
VELOX 1 03 Jul 00:12:21 00:16:44 75° 256° (WSW) 00:21:10 145.980
Cosmos 2504 03 Jul 00:19:16 00:27:31 40° 68° (ENE) 00:35:24 435.465 / 435.565
SPROUT 03 Jul 00:21:46 00:25:57 62° 72° (ENE) 00:30:10 437.525
AO-85 03 Jul 00:23:09 00:25:45 14° 340° (NNW) 00:28:17 145.980
UKube-1 03 Jul 00:28:59 00:33:17 78° 255° (WSW) 00:37:38 .
PCSat 03 Jul 00:29:52 00:31:58 12° 102° (ESE) 00:34:03 145.827
ANTELSAT 03 Jul 00:32:27 00:36:45 37° 292° (WNW) 00:41:03 437.575/2403.000
NANOSAT C BR1 03 Jul 00:42:51 00:47:04 57° 101° (E) 00:51:16 145.865
JAS-2 03 Jul 00:43:02 00:46:28 17° 87° (E) 00:49:45 435.910
QB50P1 03 Jul 00:48:31 00:52:47 69° 102° (ESE) 00:57:02 145.935-145.965
POPSAT HIP 1 03 Jul 00:52:11 00:56:28 74° 103° (ESE) 01:00:44 437.405
SWISSCUBE 03 Jul 00:53:08 00:54:57 12° 55° (NE) 00:56:45 437.505
50 SAT 03 Jul 00:54:15 00:57:10 21° 266° (W) 01:00:06 437.505
AISAT 03 Jul 00:54:38 00:58:24 28° 265° (W) 01:02:11 437.250
DX 1 03 Jul 00:58:10 01:02:04 32° 263° (W) 01:05:59 434.975-435.025
DUCHIFAT 1 03 Jul 01:01:10 01:05:26 83° 106° (ESE) 01:09:41 145.980
QB50P2 03 Jul 01:05:44 01:10:01 76° 286° (WNW) 01:14:17 145.880/145.840
POLYITAN 1 03 Jul 01:08:22 01:12:39 74° 287° (WNW) 01:16:56 437.675
ESTCUBE 1 03 Jul 01:11:00 01:13:33 15° 271° (W) 01:16:06 437.505/2401.250
BEESAT 03 Jul 01:16:20 01:19:26 17° 59° (ENE) 01:22:33 436.000
ITUPSAT 1 03 Jul 01:20:16 01:23:32 19° 59° (ENE) 01:26:49 437.325
Cosmos 2491 03 Jul 01:21:27 01:30:14 82° 279° (W) 01:39:02 435.465 / 435.565
TIGRISAT 03 Jul 01:23:56 01:26:35 15° 301° (WNW) 01:29:12 435.000
TISAT 1 03 Jul 01:25:13 01:29:22 79° 75° (ENE) 01:33:33 437.305
UNISAT 6 03 Jul 01:31:11 01:33:11 13° 303° (WNW) 01:35:11 437.425
CUBEBUG 1 03 Jul 01:31:38 01:33:26 12° 272° (W) 01:35:14 437.445
BUGSAT 1 03 Jul 01:37:59 01:42:07 85° 286° (WNW) 01:46:18 437.445
SO-50 03 Jul 01:38:26 01:40:05 12° 253° (WSW) 01:41:44 436.795
BEESAT 2 03 Jul 01:40:51 01:43:20 16° 112° (ESE) 01:45:48 435.950
O/OREOS (USA 219) 03 Jul 01:47:33 01:51:03 23° 103° (ESE) 01:54:33 437.305
SPROUT 03 Jul 02:00:01 02:02:19 14° 271° (W) 02:04:40 437.525
YUBILEINY 03 Jul 02:04:40 02:11:14 24° 282° (WNW) 02:17:48 435.215
PCSat 03 Jul 02:09:01 02:14:26 77° 121° (ESE) 02:19:53 145.827
Cosmos 2504 03 Jul 02:12:40 02:21:14 56° 270° (W) 02:29:26 435.465 / 435.565
Oscar 19 03 Jul 02:14:15 02:19:01 37° 97° (E) 02:23:45 437.125/150
NANOSAT C BR1 03 Jul 02:19:38 02:22:23 17° 299° (WNW) 02:25:10 145.865
QB50P1 03 Jul 02:25:41 02:28:04 15° 300° (WNW) 02:30:27 145.935-145.965
JAS-2 03 Jul 02:26:45 02:32:20 71° 288° (WNW) 02:37:31 435.910
SWISSCUBE 03 Jul 02:27:08 02:31:56 76° 72° (ENE) 02:36:45 437.505
POPSAT HIP 1 03 Jul 02:29:29 02:31:42 14° 301° (WNW) 02:33:55 437.405
BEESAT 3 03 Jul 02:29:32 02:33:29 83° 123° (ESE) 02:37:26 437.485
KKS-1 03 Jul 02:29:33 02:30:49 11° 56° (NE) 02:32:05 437.445
DUCHIFAT 1 03 Jul 02:38:43 02:40:30 12° 302° (WNW) 02:42:18 145.980
ITAMSAT 1 03 Jul 02:48:42 02:51:03 13° 87° (E) 02:53:24 435.822/435.867
MOZHAYETS 4 03 Jul 02:51:39 02:54:36 17° 60° (ENE) 02:57:34
BEESAT 03 Jul 02:51:55 02:56:41 71° 257° (WSW) 03:01:31 436.000
ITUPSAT 1 03 Jul 02:56:07 03:00:53 66° 258° (WSW) 03:05:43 437.325
TISAT 1 03 Jul 03:04:31 03:05:34 11° 272° (W) 03:06:38 437.305
Gurwin Techsat 1B 03 Jul 03:08:11 03:13:23 51° 100° (E) 03:18:33 435.225
BUGSAT 1 03 Jul 03:16:02 03:16:50 10° 302° (WNW) 03:17:38 437.445
BEESAT 2 03 Jul 03:16:48 03:20:43 60° 310° (NW) 03:24:42 435.950
Cosmos 2491 03 Jul 03:22:20 03:28:37 21° 304° (WNW) 03:34:55 435.465 / 435.565
O/OREOS (USA 219) 03 Jul 03:25:54 03:30:12 43° 302° (WNW) 03:34:30 437.305
AO-85 03 Jul 03:47:25 03:50:52 19° 30° (NNE) 03:54:07 145.980
Oscar 19 03 Jul 03:53:44 03:58:16 33° 295° (WNW) 04:02:48 437.125/150
PCSat 03 Jul 03:54:00 03:58:26 25° 322° (NW) 04:02:53 145.827
KKS-1 03 Jul 04:02:14 04:06:38 80° 75° (ENE) 04:11:06 437.445
AIST 1 03 Jul 04:06:35 04:10:51 75° 79° (E) 04:15:07
SWISSCUBE 03 Jul 04:07:44 04:10:17 14° 271° (W) 04:12:51 437.505
BEESAT 3 03 Jul 04:09:00 04:11:41 17° 326° (NW) 04:14:23 437.485
GONETS M04 03 Jul 04:09:01 04:16:11 27° 61° (ENE) 04:23:20
Cosmos 2504 03 Jul 04:09:56 04:12:29 12° 292° (WNW) 04:15:00 435.465 / 435.565
JAS-2 03 Jul 04:14:06 04:16:18 12° 310° (NW) 04:18:26 435.910
STARS 03 Jul 04:21:30 04:25:49 66° 72° (ENE) 04:30:11 437.465
ITAMSAT 1 03 Jul 04:26:01 04:31:17 89° 102° (ESE) 04:36:31 435.822/435.867
MOZHAYETS 4 03 Jul 04:26:39 04:31:15 68° 258° (WSW) 04:35:55
CUBESAT XI-V 03 Jul 04:31:22 04:34:52 21° 62° (ENE) 04:38:23 437.345
AO-7 03 Jul 04:37:33 04:45:36 48° 100° (E) 04:53:34 29.400- 29.500
AIST 2 03 Jul 04:38:07 04:42:10 58° 123° (ESE) 04:46:15 435.215
Cosmos 2499 03 Jul 04:41:53 04:49:18 29° 62° (ENE) 04:56:19 435.465 / 435.565
Gurwin Techsat 1B 03 Jul 04:48:41 04:53:03 26° 298° (WNW) 04:57:24 435.225
BEESAT 2 03 Jul 04:57:22 04:59:23 13° 331° (NNW) 05:01:24 435.950
